EW5474 Weather Reports


Display with metric or nautical units.
time (UTC)temp
F
wind
direction
speed
MPH
gust
MPH
rain 1hr
in
rain 24hr
in
rain mn
in
humidity
%
barometer
mb
20260506144841 74 229 2.0 7.0 0.00 0.00 0.00 62 1014.3
20260506144606 74 165 2.0 6.0 0.00 0.00 0.00 60 1014.1
20260506143828 75 245 2.0 5.0 0.00 0.00 0.00 61 1014.0
20260506143322 75 229 1.0 5.0 0.00 0.00 0.00 62 1014.1
20260506143048 75 209 2.0 8.0 0.00 0.00 0.00 64 1014.2
20260506142311 74 225 3.0 8.0 0.00 0.00 0.00 65 1013.9
20260506142036 73 225 3.0 9.0 0.00 0.00 0.00 64 1013.7
20260506141530 74 182 2.0 9.0 0.00 0.00 0.00 63 1014.0
20260506140752 74 211 2.0 7.0 0.00 0.00 0.00 65 1013.9
20260506140247 74 248 3.0 8.0 0.00 0.00 0.00 63 1013.9
20260506135741 74 211 3.0 8.0 0.00 0.00 0.00 64 1013.8
20260506135506 73 226 3.0 10.0 0.00 0.00 0.00 65 1013.9
20260506135001 72 228 3.0 10.0 0.00 0.00 0.00 66 1013.8
20260506134223 72 202 3.0 9.0 0.00 0.00 0.00 66 1013.5
20260506133717 72 242 3.0 9.0 0.00 0.00 0.00 66 1013.5
20260506133211 72 230 3.0 7.0 0.00 0.00 0.00 67 1013.5
20260506132936 72 187 3.0 8.0 0.00 0.00 0.00 66 1013.7
20260506132159 72 221 3.0 8.0 0.00 0.00 0.00 68 1013.8
20260506131653 71 191 3.0 7.0 0.00 0.00 0.00 68 1014.0
20260506131147 71 225 2.0 7.0 0.00 0.00 0.00 68 1014.1
20260506130641 71 218 2.0 8.0 0.00 0.00 0.00 69 1014.0
20260506130135 70 158 2.0 8.0 0.00 0.00 0.00 70 1013.9
20260506125629 69 171 2.0 7.0 0.00 0.00 0.00 72 1013.9
20260506125123 69 207 2.0 6.0 0.00 0.00 0.00 72 1014.0
20260506124617 69 208 2.0 4.0 0.00 0.00 0.00 72 1014.1
20260506124111 69 179 2.0 7.0 0.00 0.00 0.00 72 1014.2
20260506123605 68 223 2.0 7.0 0.00 0.00 0.00 72 1014.4
20260506123059 68 200 2.0 7.0 0.00 0.00 0.00 74 1014.3
20260506122553 67 203 2.0 7.0 0.00 0.00 0.00 74 1014.2
20260506122046 67 155 2.0 7.0 0.00 0.00 0.00 75 1014.3
20260506121541 67 238 2.0 7.0 0.00 0.00 0.00 76 1014.4
20260506121306 66 199 2.0 7.0 0.00 0.00 0.00 76 1014.3
20260506120800 66 176 2.0 7.0 0.00 0.00 0.00 76 1014.4
20260506120026 65 201 3.0 6.0 0.00 0.00 0.00 77 1014.4
20260506115517 65 187 2.0 6.0 0.00 0.00 0.00 78 1014.4
20260506115011 65 217 2.0 6.0 0.00 0.00 0.00 78 1014.4
20260506114505 64 192 2.0 6.0 0.00 0.00 0.00 79 1014.5
20260506113959 64 205 1.0 5.0 0.00 0.00 0.00 79 1014.7
20260506113453 64 226 1.0 4.0 0.00 0.00 0.00 80 1014.7
20260506112947 63 195 2.0 5.0 0.00 0.00 0.00 80 1014.6
20260506112441 63 187 1.0 5.0 0.00 0.00 0.00 81 1014.5
20260506111935 63 113 1.0 7.0 0.00 0.00 0.00 81 1014.6
20260506111429 63 211 1.0 7.0 0.00 0.00 0.00 81 1014.6
20260506110923 62 206 1.0 5.0 0.00 0.00 0.00 81 1014.5
20260506110417 62 138 1.0 5.0 0.00 0.00 0.00 82 1014.4
20260506110142 62 192 1.0 5.0 0.00 0.00 0.00 82 1014.4
20260506105405 62 196 1.0 4.0 0.00 0.00 0.00 82 1014.4
20260506104859 62 200 1.0 4.0 0.00 0.00 0.00 82 1014.4
20260506104356 62 199 1.0 5.0 0.00 0.00 0.00 81 1014.3
20260506104349 62 202 1.0 5.0 0.00 0.00 0.00 81 1014.3
20260506103341 62 169 1.0 5.0 0.00 0.00 0.00 81 1014.2
20260506102835 62 173 1.0 5.0 0.00 0.00 0.00 81 1014.2
20260506102329 62 205 1.0 5.0 0.00 0.00 0.00 81 1014.1
20260506101823 62 196 2.0 5.0 0.00 0.00 0.00 80 1014.0
20260506101317 62 215 2.0 5.0 0.00 0.00 0.00 80 1014.0
20260506100810 62 204 2.0 7.0 0.00 0.00 0.00 80 1014.0
20260506100305 62 199 1.0 7.0 0.00 0.00 0.00 80 1014.1
20260506100030 62 220 1.0 7.0 0.00 0.00 0.00 79 1014.1
20260506095253 62 180 1.0 7.0 0.00 0.00 0.00 79 1014.1
20260506094747 62 205 1.0 8.0 0.00 0.00 0.00 79 1014.1
20260506094241 62 206 2.0 8.0 0.00 0.00 0.00 79 1014.1
20260506094006 62 170 1.0 4.0 0.00 0.00 0.00 79 1014.2
20260506093229 62 200 1.0 4.0 0.00 0.00 0.00 79 1014.3
20260506092723 62 194 0.0 5.0 0.00 0.00 0.00 79 1014.4
20260506092216 62 209 1.0 5.0 0.00 0.00 0.00 79 1014.5
20260506091712 62 219 1.0 4.0 0.00 0.00 0.00 79 1014.6
20260506091212 62 186 1.0 4.0 0.00 0.00 0.00 78 1014.6
20260506090712 62 205 1.0 4.0 0.00 0.00 0.00 78 1014.6
20260506090213 62 205 1.0 4.0 0.00 0.00 0.00 78 1014.5
20260506085712 62 175 1.0 5.0 0.00 0.00 0.00 78 1014.6
20260506085212 62 183 1.0 5.0 0.00 0.00 0.00 78 1014.6
20260506084943 62 206 2.0 5.0 0.00 0.00 0.00 78 1014.5
20260506084213 62 198 1.0 5.0 0.00 0.00 0.00 78 1014.6
20260506083712 62 210 0.0 2.0 0.00 0.00 0.00 78 1014.6
20260506083212 62 208 1.0 5.0 0.00 0.00 0.00 78 1014.6
20260506082945 62 202 1.0 5.0 0.00 0.00 0.00 78 1014.5
20260506082213 62 203 1.0 3.0 0.00 0.00 0.00 78 1014.5
20260506081714 63 190 1.0 3.0 0.00 0.00 0.00 78 1014.5
20260506081210 63 211 1.0 3.0 0.00 0.00 0.00 78 1014.5
20260506080710 63 189 1.0 3.0 0.00 0.00 0.00 78 1014.6
20260506080209 63 188 1.0 3.0 0.00 0.00 0.00 78 1014.5
20260506073143 63 225 1.0 7.0 0.00 0.00 0.00 77 1014.5
20260506072637 63 205 1.0 8.0 0.00 0.00 0.00 77 1014.5
20260506072131 63 195 1.0 8.0 0.00 0.00 0.00 77 1014.4
20260506071625 63 163 2.0 5.0 0.00 0.00 0.00 76 1014.3
20260506071119 63 202 2.0 5.0 0.00 0.00 0.00 76 1014.4
20260506070613 63 198 1.0 5.0 0.00 0.00 0.00 76 1014.4
20260506070109 63 221 1.0 4.0 0.00 0.00 0.00 76 1014.5
20260506061513 64 152 1.0 8.0 0.00 0.00 0.00 73 1014.8
20260506061007 64 208 1.0 8.0 0.00 0.00 0.00 73 1014.7
20260506060501 64 202 2.0 5.0 0.00 0.00 0.00 73 1014.8
20260506060226 64 182 1.0 5.0 0.00 0.00 0.00 73 1015.0
20260506050922 65 210 1.0 5.0 0.00 0.00 0.00 71 1015.5
20260506050421 65 225 1.0 10.0 0.00 0.00 0.00 71 1015.4
20260506044922 65 213 1.0 4.0 0.00 0.00 0.00 70 1015.4
20260506044418 65 186 1.0 5.0 0.00 0.00 0.00 70 1015.5
20260506043917 65 186 2.0 5.0 0.00 0.00 0.00 70 1015.5
20260506043417 66 203 2.0 5.0 0.00 0.00 0.00 70 1015.4
20260506042917 66 220 2.0 5.0 0.00 0.00 0.00 70 1015.5
20260506042415 66 205 2.0 4.0 0.00 0.00 0.00 69 1015.5
20260506041914 66 152 1.0 6.0 0.00 0.00 0.00 69 1015.6
20260506041416 66 173 2.0 6.0 0.00 0.00 0.00 69 1015.5
20260506040914 66 221 2.0 4.0 0.00 0.00 0.00 69 1015.5
20260506040410 66 209 2.0 6.0 0.00 0.00 0.00 69 1015.5
20260506035910 66 203 2.0 10.0 0.00 0.00 0.00 68 1015.5
20260506035404 66 169 2.0 10.0 0.00 0.00 0.00 68 1015.4
20260506034900 67 192 2.0 6.0 0.00 0.00 0.00 68 1015.5
20260506034854 67 211 2.0 8.0 0.00 0.00 0.00 67 1015.4
20260506033847 67 215 2.0 8.0 0.00 0.00 0.00 67 1015.3
20260506033340 67 213 3.0 9.0 0.00 0.00 0.00 67 1015.3
20260506032835 67 213 3.0 9.0 0.00 0.00 0.00 67 1015.3
20260506032329 67 204 2.0 7.0 0.00 0.00 0.00 67 1015.3
20260506031823 67 207 1.0 7.0 0.00 0.00 0.00 67 1015.3
20260506031330 67 206 2.0 8.0 0.00 0.00 0.00 66 1015.3
20260506030822 67 206 3.0 8.0 0.00 0.00 0.00 66 1015.4
20260506030310 67 219 3.0 8.0 0.00 0.00 0.00 66 1015.3
20260506025755 67 193 2.0 6.0 0.00 0.00 0.00 66 1015.3
20260506025249 68 207 3.0 7.0 0.00 0.00 0.00 66 1015.3
20260506024743 68 209 3.0 8.0 0.00 0.00 0.00 66 1015.4
20260506024237 68 205 2.0 8.0 0.00 0.00 0.00 65 1015.4
20260506023731 68 217 2.0 7.0 0.00 0.00 0.00 65 1015.4
20260506023225 68 207 3.0 7.0 0.00 0.00 0.00 65 1015.4
20260506022719 68 180 3.0 8.0 0.00 0.00 0.00 64 1015.3
20260506022212 68 146 2.0 8.0 0.00 0.00 0.00 64 1015.3
20260506021707 69 211 2.0 9.0 0.00 0.00 0.00 64 1015.3
20260506021201 69 192 3.0 11.0 0.00 0.00 0.00 64 1015.3
20260506020655 69 223 3.0 11.0 0.00 0.00 0.00 64 1015.2
20260506020149 69 207 2.0 6.0 0.00 0.00 0.00 64 1015.3
20260506015643 69 158 2.0 7.0 0.00 0.00 0.00 64 1015.3
20260506015137 69 173 2.0 7.0 0.00 0.00 0.00 63 1015.1
20260506014631 69 213 2.0 9.0 0.00 0.00 0.00 63 1015.1
20260506014125 69 162 3.0 9.0 0.00 0.00 0.00 63 1015.1
20260506013619 70 250 3.0 8.0 0.00 0.00 0.00 63 1015.0
20260506013113 70 240 3.0 12.0 0.00 0.00 0.00 63 1015.1
20260506012607 70 192 3.0 12.0 0.00 0.00 0.00 63 1015.0
20260506012101 70 217 3.0 11.0 0.00 0.00 0.00 62 1014.9
20260506011826 70 191 3.0 9.0 0.00 0.00 0.00 62 1014.9
20260506011320 70 206 3.0 9.0 0.00 0.00 0.00 62 1014.9
20260506010543 70 183 3.0 7.0 0.00 0.00 0.00 62 1014.9
20260506010037 71 202 3.0 7.0 0.00 0.00 0.00 62 1014.7
20260506005531 71 207 3.0 9.0 0.00 0.00 0.00 62 1014.6
20260506005025 71 204 3.0 9.0 0.00 0.00 0.00 61 1014.6
20260506004519 71 200 3.0 8.0 0.00 0.00 0.00 61 1014.6
20260506004026 71 178 3.0 10.0 0.00 0.00 0.00 61 1014.6
20260506003507 71 68 3.0 11.0 0.00 0.00 0.00 61 1014.5
20260506003001 72 152 3.0 11.0 0.00 0.00 0.00 60 1014.4
20260506002455 72 214 3.0 11.0 0.00 0.00 0.00 60 1014.4
20260506001949 72 206 3.0 10.0 0.00 0.00 0.00 60 1014.4
20260506001714 72 175 4.0 13.0 0.00 0.00 0.00 59 1014.3
20260506000937 73 195 4.0 13.0 0.00 0.00 0.00 59 1014.3
20260506000431 73 206 3.0 11.0 0.00 0.00 0.00 59 1014.2
20260505235925 73 279 3.0 9.0 0.00 0.00 0.00 59 1014.0
20260505235419 73 175 3.0 6.0 0.00 0.00 0.00 59 1013.9
20260505235144 73 215 3.0 9.0 0.00 0.00 0.00 58 1013.8
20260505234407 74 211 4.0 11.0 0.00 0.00 0.00 58 1013.9
20260505234132 74 204 3.0 11.0 0.00 0.00 0.00 58 1013.8
20260505233354 74 205 3.0 9.0 0.00 0.00 0.00 58 1013.8
20260505232849 74 203 2.0 9.0 0.00 0.00 0.00 57 1013.7
20260505232343 74 209 2.0 5.0 0.00 0.00 0.00 57 1013.9
20260505232108 75 217 2.0 11.0 0.00 0.00 0.00 57 1014.0
20260505231331 75 194 3.0 11.0 0.00 0.00 0.00 57 1013.7
20260505231056 75 218 4.0 15.0 0.00 0.00 0.00 56 1013.7
20260505230319 75 170 3.0 15.0 0.00 0.00 0.00 56 1013.7
20260505225813 75 194 3.0 10.0 0.00 0.00 0.00 56 1013.6
20260505225307 76 169 4.0 10.0 0.00 0.00 0.00 55 1013.6
20260505224801 76 209 3.0 8.0 0.00 0.00 0.00 55 1013.6
20260505224254 76 200 2.0 7.0 0.00 0.00 0.00 55 1013.6
20260505223749 76 221 3.0 7.0 0.00 0.00 0.00 54 1013.6
20260505223243 76 223 3.0 7.0 0.00 0.00 0.00 54 1013.5
20260505222737 77 136 4.0 11.0 0.00 0.00 0.00 53 1013.5
20260505222231 77 228 4.0 12.0 0.00 0.00 0.00 52 1013.5
20260505221725 78 192 3.0 12.0 0.00 0.00 0.00 51 1013.6
20260505221219 78 209 3.0 14.0 0.00 0.00 0.00 51 1013.5
20260505220713 78 226 4.0 14.0 0.00 0.00 0.00 50 1013.5
20260505220206 78 200 4.0 11.0 0.00 0.00 0.00 49 1013.4
20260505215931 78 222 5.0 9.0 0.00 0.00 0.00 48 1013.5
20260505215426 78 217 4.0 10.0 0.00 0.00 0.00 48 1013.5
20260505214649 79 192 4.0 9.0 0.00 0.00 0.00 47 1013.4
20260505214143 79 243 4.0 10.0 0.00 0.00 0.00 46 1013.3
20260505213637 79 207 4.0 11.0 0.00 0.00 0.00 45 1013.3
20260505213131 80 207 3.0 11.0 0.00 0.00 0.00 45 1013.3
20260505212856 80 213 3.0 10.0 0.00 0.00 0.00 44 1013.3
20260505212119 80 189 4.0 11.0 0.00 0.00 0.00 44 1013.2
20260505211613 80 167 4.0 14.0 0.00 0.00 0.00 44 1013.2
20260505211107 80 225 3.0 14.0 0.00 0.00 0.00 44 1013.2
20260505210614 80 207 4.0 8.0 0.00 0.00 0.00 43 1013.3
20260505210058 80 232 4.0 13.0 0.00 0.00 0.00 44 1013.2
20260505205548 80 195 4.0 13.0 0.00 0.00 0.00 43 1013.2
20260505205043 80 205 4.0 12.0 0.00 0.00 0.00 43 1013.2
20260505204537 80 228 4.0 10.0 0.00 0.00 0.00 43 1013.2
20260505204031 81 206 4.0 9.0 0.00 0.00 0.00 43 1013.1
20260505203524 81 180 4.0 15.0 0.00 0.00 0.00 42 1013.1
20260505203019 81 195 3.0 15.0 0.00 0.00 0.00 43 1013.2
20260505202513 81 232 3.0 11.0 0.00 0.00 0.00 42 1013.4
20260505202007 81 195 3.0 11.0 0.00 0.00 0.00 41 1013.5
20260505201501 81 209 2.0 6.0 0.00 0.00 0.00 39 1013.5
20260505200955 81 267 3.0 9.0 0.00 0.00 0.00 39 1013.6
20260505200449 81 210 3.0 9.0 0.00 0.00 0.00 40 1013.7
20260505195947 81 238 3.0 8.0 0.00 0.00 0.00 38 1013.8
20260505195433 81 229 3.0 7.0 0.00 0.00 0.00 39 1013.9
20260505195158 81 187 4.0 13.0 0.00 0.00 0.00 39 1013.9
20260505194524 81 219 4.0 13.0 0.00 0.00 0.00 40 1013.9
20260505193409 81 172 4.0 14.0 0.00 0.00 0.00 39 1014.3
20260505192903 81 194 3.0 9.0 0.00 0.00 0.00 41 1014.3
20260505192357 81 216 3.0 8.0 0.00 0.00 0.00 39 1014.4
20260505191851 81 206 3.0 8.0 0.00 0.00 0.00 39 1014.4
20260505191345 81 163 2.0 8.0 0.00 0.00 0.00 39 1014.5
20260505190839 82 215 2.0 7.0 0.00 0.00 0.00 39 1014.4
20260505190333 82 213 2.0 9.0 0.00 0.00 0.00 39 1014.5
20260505185827 81 205 2.0 9.0 0.00 0.00 0.00 36 1014.5
20260505185321 82 212 2.0 5.0 0.00 0.00 0.00 37 1014.6
20260505184815 81 218 3.0 7.0 0.00 0.00 0.00 38 1014.7
20260505184308 81 189 4.0 7.0 0.00 0.00 0.00 38 1014.7
20260505184034 81 185 3.0 10.0 0.00 0.00 0.00 36 1014.7
20260505183257 81 212 3.0 10.0 0.00 0.00 0.00 37 1014.7
20260505182751 81 254 3.0 9.0 0.00 0.00 0.00 38 1014.7
20260505182245 82 141 2.0 6.0 0.00 0.00 0.00 39 1014.8
20260505182010 81 208 3.0 7.0 0.00 0.00 0.00 38 1014.8
20260505181233 81 239 3.0 7.0 0.00 0.00 0.00 39 1015.0
20260505180727 81 229 3.0 7.0 0.00 0.00 0.00 39 1014.9
20260505180221 80 232 2.0 7.0 0.00 0.00 0.00 40 1014.8
20260505175715 81 281 3.0 8.0 0.00 0.00 0.00 39 1014.9
20260505175209 81 209 3.0 8.0 0.00 0.00 0.00 38 1014.9
20260505174703 81 167 3.0 12.0 0.00 0.00 0.00 42 1014.9
20260505174428 80 220 3.0 12.0 0.00 0.00 0.00 41 1015.0
20260505173650 80 211 3.0 9.0 0.00 0.00 0.00 42 1015.0
20260505173145 80 214 3.0 7.0 0.00 0.00 0.00 43 1014.9
20260505172639 80 178 3.0 7.0 0.00 0.00 0.00 40 1015.1
20260505172133 81 208 3.0 12.0 0.00 0.00 0.00 41 1015.2
20260505171857 80 219 3.0 12.0 0.00 0.00 0.00 42 1015.3
20260505171121 80 256 2.0 6.0 0.00 0.00 0.00 42 1015.3
20260505170615 80 231 3.0 10.0 0.00 0.00 0.00 43 1015.3
20260505170113 80 185 3.0 10.0 0.00 0.00 0.00 43 1015.4
20260505165603 79 209 4.0 7.0 0.00 0.00 0.00 44 1015.6
20260505165056 79 178 3.0 9.0 0.00 0.00 0.00 44 1015.6
20260505164822 79 209 2.0 8.0 0.00 0.00 0.00 44 1015.5
20260505164045 79 208 2.0 8.0 0.00 0.00 0.00 42 1015.6
20260505163539 79 225 2.0 5.0 0.00 0.00 0.00 45 1015.6
20260505163304 78 163 3.0 9.0 0.00 0.00 0.00 46 1015.7
20260505162530 78 178 3.0 8.0 0.00 0.00 0.00 44 1015.7
20260505162523 78 209 2.0 6.0 0.00 0.00 0.00 45 1015.7
20260505161746 78 240 2.0 6.0 0.00 0.00 0.00 46 1015.8
20260505161009 78 196 2.0 10.0 0.00 0.00 0.00 47 1015.8
20260505160503 79 126 2.0 10.0 0.00 0.00 0.00 48 1015.9
20260505152921 76 246 2.0 9.0 0.00 0.00 0.00 49 1016.0
20260505152646 76 218 2.0 9.0 0.00 0.00 0.00 50 1016.0
20260505151909 76 214 2.0 5.0 0.00 0.00 0.00 49 1016.1
20260505151403 76 220 2.0 6.0 0.00 0.00 0.00 50 1016.0
20260505150857 75 215 2.0 6.0 0.00 0.00 0.00 49 1016.0
20260505150351 75 242 3.0 6.0 0.00 0.00 0.00 53 1016.2